Location: Kumla
(59.1265°N, 15.1401°E)
Time: 17:42:54
(UTC+01:00)

Altair - Pass Details

Date: 07 December 2023
Orbit: 1501 x 1682 km, 47.2° (Epoch: 25 February)

Event Time Altitude Azimuth Distance (km) Brightness Sun altitude
Rises 09:20:23 0° 237° (WSW) 4,807 10.1 2.6°
Reaches altitude 10° 09:23:47 10° 230° (SW) 3,796 9.7 2.9°
Maximum altitude 09:32:17 38° 167° (SSE) 2,215 9.3 3.5°
Drops below altitude 10° 09:40:33 10° 104° (ESE) 3,685 10.3 4.0°
Sets 09:43:48 0° 97° (E) 4,653 10.6 4.2°
